Location: Courçay
(47.2523°N, 0.8761°E)
Time: 07:28:12
(UTC+00:00)

SL-12 R/B(2) - Pass Details

Date: 18 November 2025
Orbit: 1173 x 2175 km, 63.4° (Epoch: 06 December)

Event Time Altitude Azimuth Distance (km) Brightness Sun altitude
Rises 17:14:55 0° 209° (SSW) 4,158 7.6 -9.7°
Reaches altitude 10° 17:17:30 10° 207° (SSW) 3,263 6.9 -10.2°
Maximum altitude 17:25:20 75° 124° (SE) 1,487 4.3 -11.4°
Drops below altitude 10° 17:34:57 10° 42° (NE) 3,959 6.2 -13.0°
Enters shadow 17:35:48 - 41° (NE) 4,238 6.3 -13.1°
